CZ-6A DEB, 54306

Orbit data source: Space-Track

CZ-6A DEB, 54306 is space debris in SSO originally from a launch on Fri, 11 Nov 2022 UTC launched from the Taiyaun Space Center, China (TSC). Debris objects in space refer to the collection of defunct objects orbiting the Earth. Examples of debris include non-operational satellites, rocket bodies, and fragments generated from explosions, collisions, or faulty payload assembly.

Loading next visibility...
Identifier
54306, 2022-151AZ
Orbit
SSO
Country
Flag of CNCN / PRC
Related business
Manufacturer
SAST
Mission
Spacecraft
Bus & Motor
Unknown
Mass
Unknown
Launch date (UTC)
2022-11-11 (4 years ago)
Launch vehicle
Unknown
Launch site
Taiyaun Space Center, China (TSC)
Object type
Payload
Rocket body
Debris
Shape & HBR
Unknown shape, 0.2 m
Radar Cross Section
Medium (>0.1 m² and <1 m²)

Expand to show TLE details & history
Last TLE update: 11 hours ago

TLE from 11 hours ago
0 CZ-6A DEB
1 54306U 22151AZ  26263.94678979  .00000224  00000-0  14600-3 0  9999
2 54306  98.8408 265.2691 0040697  56.7607 303.7454 14.11729028198105
Epoch: 2026-09-20T22:43Z
TLE epoch observation values (Epoch: 2026-09-20T22:43:22.637Z)
Latitude
-0.00013°
Longitude
-75.40887°
Altitude
840.091 km
Speed
7.441 km/s
True Right ascension
17h 41m 04s
True Declination
0° 00' 00"
Sunlit
Object was in daylight at epoch
Visualization orbit readout
Latitude
Unknown
Longitude
Unknown
Altitude
Unknown
Speed
Unknown
Apparent Right ascension
Unknown
Apparent Declination
Unknown
Sunlit
N/A
Visualization observer readout
Local Sidereal Time
03:12:04
Azimuth
Unknown
Elevation
Unknown
Doppler factor
Unknown
Orbital elements
Apogee altitude
880.056 km
Perigee altitude
821.218 km
Semi-major axis
7,228.774 km
Eccentricity
0.00407
Inclination
98.8408°
RAAN
265.2691°
Arg. of periapsis
56.7607°
True anomaly
303.35652°
Mean anomaly
303.7454°
Eccentric anomaly
303.55107°
Mean motion
3.53139 °/min
Orbital period
101.94 mins
BSTAR
0.000146
Loading maneuver chart data...
Computing Atmospheric mass density...
Loading historical data...
Loading historical data...
Loading historical data...
Loading historical data...
Loading historical data...
Loading historical data...
Loading historical data...

Documentation

Showing up to 5 results
|